Погода в Горловке

Украина / Донецкая область     48°18′21″N   38°00′09″E
темп.,
°C
ветер,
м/с
пор.,
м/с
влажн.,
%
обл.,
%
осадки,
мм/ч
давл.,
гПа
погр.,
м
13 июня, вс
вс1300:00+16юз22890 0.0 101136
03:00+15зюз22910 0.0 101130
06:00+16зюз13890 0.0 1011118
09:00+20зюз23690 0.0 1011666
12:00+24з23531 0.1 10111635
15:00+24з235246 0.2 10101169
18:00+22зюз236091 0.0 1011285
21:00+18ююз22711 0.0 101128
14 июня, пн
пн1400:00+17ююв22805 0.0 101231
03:00+15ююв228377 0.0 101225
06:00+17юв238047 0.0 101289
09:00+22юв3460100 0.0 1012682
12:00+24ююв3452100 0.0 10131620
15:00+25юв3253100 0.0 10121638
18:00+25всв22547 0.1 10121364
21:00+20всв22714 0.1 101230
15 июня, вт
вт1500:00+19св227567 0.0 101220
03:00+19св2473100 0.0 101183
06:00+19св2477100 0.0 1011113
09:00+21всв357254 0.1 1011301
12:00+25в4448100 0.1 10102151
15:00+26вюв3349100 0.1 10091732
18:00+23ююв4567100 0.4 1009396
21:00+19зюз1185100 2.1 100918
16 июня, ср
ср1600:00+17ююз009098 2.1 100911
03:00+16ссв119384 2.3 100920
06:00+17ю23925 0.3 1010108
09:00+19юз2387100 0.9 1010264
12:00+18юз5688100 0.6 1012482
15:00+19юз327899 1.1 1012648
18:00+18з227952 0.1 1013533
21:00+16з11890 0.1 101318
17 июня, чт
чт1700:00+15сз11901 0.0 101316
03:00+14ссв11920 0.0 101411
06:00+15ссв128647 0.0 101491
09:00+20св3472100 0.0 1014604
12:00+24св4558100 0.0 10141325
15:00+25св4456100 0.0 10141464
18:00+21св4786100 3.5 1013387
21:00+19св81697100 14.3 10111057